Regional Weather Roundup
Issued by NWS Northern Indiana

Home | Current Version | Previous Version | Text Only | Print | Product List | Glossary Off
Versions: 1 2 3 4 5 6 7 8 9 10 11 12 13 14 15 16 17 18 19 20 21 22 23 24 25 26 27 28 29 30 31 32 33 34 35 36 37 38 39 40 41 42 43 44 45 46 47 48 49 50

000
ASUS43 KIWX 260910
RWRIWX

KIWX WEATHER ROUNDUP
NATIONAL WEATHER SERVICE NORTHERN INDIANA
400 AM EST SUN FEB 26 2017

NOTE: "FAIR" INDICATES FEW OR NO CLOUDS BELOW 12,000 FEET WITH NO
SIGNIFICANT WEATHER AND/OR OBSTRUCTIONS TO VISIBILITY.

* THESE STATIONS ARE NOT UNDER NWS QUALITY CONTROL. THEY ALSO MAY NOT
  REPORT WEATHER SUCH AS PRECIPITATION OR FOG.

INZ001>027-261000-
NORTHERN INDIANA

CITY           SKY/WX    TMP DP  RH WIND       PRES   REMARKS
GARY*          CLEAR     24  17  75 S3        30.08S
VALPARAISO     CLEAR     21  16  81 SW7       30.07S WCI  12
MICHIGAN CITY* CLEAR     21  16  79 SW5       30.07S WCI  15
LAPORTE*       CLOUDY    21  15  80 SW7       30.07S WCI  12
KNOX*          CLEAR     19   1  45 SW5       30.08S WCI  13
SOUTH BEND     PTCLDY    22  15  75 SW7       30.05F WCI  13
GOSHEN         CLOUDY    24  15  68 W6        30.06S WCI  17
MONTICELLO*    CLEAR     21  17  84 SW5       30.09S WCI  15
LOGANSPORT*    CLEAR     21  19  93 CALM      30.10S
ROCHESTER*     CLOUDY    27  18  69 SW3       30.08F
WARSAW*        CLOUDY    23  16  74 W7        30.07S WCI  15
ANGOLA*        CLOUDY    25  19  80 W7        30.04R WCI  17
FORT WAYNE     CLOUDY    26  18  71 NW8       30.07S WCI  18
HUNTINGTON*    CLOUDY    24  14  68 W3        30.08S
PERU/GRISSOM   CLEAR     20  16  85 W5        30.07F WCI  14
MARION*        CLEAR     22  17  82 W6        30.09F WCI  14

$$
INZ028>050-261000-
CENTRAL INDIANA

CITY           SKY/WX    TMP DP  RH WIND       PRES   REMARKS
LAFAYETTE      CLEAR     20  17  88 CALM      30.11S
KOKOMO*        CLEAR     19  15  84 W5        30.09F WCI  12
MUNCIE*        CLEAR     23  17  78 W5        30.08S WCI  17
INDIANAPOLIS   CLEAR     21  15  78 W5        30.11R WCI  15

$$
MIZ043>046-050>051-056>058-064>065-071>073-077>080-261000-
SOUTHWEST LOWER MICHIGAN

CITY           SKY/WX    TMP DP  RH WIND       PRES   REMARKS
BATTLE CREEK   CLOUDY    22  17  81 SW7       30.03R WCI  13
BENTON HARBOR  MOCLDY    26  15  63 SW5       30.04F WCI  20
COLDWATER*     CLOUDY    23  20  85 SW6       30.04R WCI  16
HILLSDALE*     FLURRIES  23  19  86 SW3       30.01S
HOLLAND        MOCLDY    25  17  72 SW8       30.02S WCI  16
GRAND RAPIDS   CLOUDY    23  15  71 SW7       30.00S WCI  15
KALAMAZOO      CLOUDY    24  15  68 SW5       30.03S WCI  18
STURGIS*       CLOUDY    24  17  74 W5        30.04R WCI  18
THREE RIVERS*  MOCLDY    25  16  68 CALM      30.05S

$$
OHZ001>008-015>018-024>025-261000-
NORTHWEST OHIO

CITY           SKY/WX    TMP DP  RH WIND       PRES   REMARKS
WAUSEON*       FLURRIES  25  21  86 W9G15     30.05S WCI  15
DEFIANCE       CLOUDY    25  17  72 VRB7      30.07R WCI  17
FINDLAY        CLOUDY    27  15  61 W13       30.05S WCI  16
TOLEDO EXPRESS CLOUDY    25  20  81 W10       30.05S WCI  15
TOLEDO METCALF CLOUDY    26  18  71 W10       30.07R WCI  16
LIMA           LGT SNOW  24  21  88 NW9       30.06R FOG     WCI  14

$$
AND FOR LAKE MICHIGAN COASTAL AND OPEN LAKE BUOY OBSERVATIONS

STATION/POSITION TEMP    WIND        PRES    VSBY  WAVE
                 AIR SEA DIR/SP/G                  HT/PER
                 (F)     (DEG/KT/KT) (MB)    (MI)  (FT/S)
CALUMET HARBOR    25     210/  5/  7 1017.4R
MICHIGAN CITY     24     180/ 10/ 10   N/A
BURNS HARBOR      24     180/  6/  9 1018.6S
SAINT JOSEPH      29     240/  7/  8 1017.9

$$
&&



USA.gov is the U.S. government's official web portal to all federal, state and local government web resources and services.